KC2G Weather Reports


time (UTC)temp
C
wind
direction
speed
KPH
gust
KPH
rain 1hr
cm
rain 24hr
cm
rain mn
cm
humidity
%
barometer
mb
20260506123055 18 194 1.6 4.8 0.00 0.00 0.00 78 1008.5
20260506121554 18 144 3.2 4.8 0.00 0.00 0.00 78 1008.8
20260506120055 18 237 1.6 4.8 0.00 0.00 0.00 78 1008.9
20260506114555 18 149 3.2 6.4 0.00 0.00 0.00 79 1009.0
20260506113055 18 182 1.6 4.8 0.00 0.00 0.00 79 1008.9
20260506111555 17 112 1.6 4.8 0.00 0.00 0.00 82 1009.0
20260506110055 17 92 1.6 3.2 0.00 0.00 0.00 84 1008.9
20260506104555 17 47 0.0 1.6 0.00 0.00 0.00 87 1009.1
20260506103055 16 89 1.6 3.2 0.00 0.00 0.00 88 1008.9
20260506101730 16 117 0.0 1.6 0.00 0.00 0.00 90 1008.9
20260506101554 16 117 0.0 1.6 0.00 0.00 0.00 90 1008.9
20260506100055 16 62 0.0 1.6 0.00 0.00 0.00 89 1008.8
20260506095423 16 88 1.6 1.6 0.00 0.00 0.00 88 1008.7
20260506094554 16 78 1.6 3.2 0.00 0.00 0.00 89 1008.8
20260506093055 16 88 1.6 1.6 0.00 0.00 0.00 88 1008.7
20260506092224 16 49 0.0 1.6 0.00 0.00 0.00 87 1008.8
20260506091555 16 80 0.0 1.6 0.00 0.00 0.00 88 1008.7
20260506090055 16 49 0.0 1.6 0.00 0.00 0.00 87 1008.8
20260506084556 16 70 1.6 3.2 0.00 0.00 0.00 86 1008.8
20260506083055 17 83 0.0 1.6 0.00 0.00 0.00 84 1008.8
20260506081555 17 96 0.0 1.6 0.00 0.00 0.00 83 1008.8
20260506073055 17 75 0.0 1.6 0.00 0.00 0.00 77 1008.7
20260506071554 18 86 0.0 1.6 0.00 0.00 0.00 75 1008.8
20260506071409 18 138 1.6 3.2 0.00 0.00 0.00 73 1008.8
20260506061554 18 153 1.6 1.6 0.00 0.00 0.00 72 1008.7
20260506044555 20 131 1.6 6.4 0.00 0.00 0.00 64 1009.1
20260506043054 20 121 1.6 6.4 0.00 0.00 0.00 64 1009.0
20260506041656 20 141 1.6 3.2 0.00 0.00 0.00 63 1008.9
20260506041555 20 141 1.6 3.2 0.00 0.00 0.00 63 1008.9
20260506040203 20 218 1.6 3.2 0.00 0.00 0.00 61 1008.8
20260506040145 20 116 1.6 3.2 0.00 0.00 0.00 63 1008.8
20260506040054 20 116 1.6 3.2 0.00 0.00 0.00 63 1008.8
20260506034555 20 149 1.6 3.2 0.00 0.00 0.00 61 1008.9
20260506033055 20 218 1.6 3.2 0.00 0.00 0.00 61 1008.8
20260506033005 21 145 1.6 4.8 0.00 0.00 0.00 57 1008.6
20260506031554 21 141 1.6 4.8 0.00 0.00 0.00 59 1008.7
20260506030055 21 145 1.6 4.8 0.00 0.00 0.00 57 1008.6
20260506025808 22 142 3.2 4.8 0.00 0.00 0.00 51 1008.4
20260506024554 22 121 1.6 3.2 0.00 0.00 0.00 54 1008.5
20260506023221 22 142 3.2 4.8 0.00 0.00 0.00 51 1008.4
20260506023056 22 142 3.2 4.8 0.00 0.00 0.00 51 1008.4
20260506022607 22 177 3.2 6.4 0.00 0.00 0.00 46 1008.1
20260506021554 22 146 0.0 3.2 0.00 0.00 0.00 48 1008.3
20260506020055 22 177 3.2 6.4 0.00 0.00 0.00 46 1008.1
20260506015412 23 175 0.0 3.2 0.00 0.00 0.00 44 1007.7
20260506014554 23 183 1.6 3.2 0.00 0.00 0.00 45 1007.8
20260506013142 23 175 0.0 3.2 0.00 0.00 0.00 44 1007.7
20260506013055 23 175 0.0 3.2 0.00 0.00 0.00 44 1007.7
20260506011555 23 189 1.6 6.4 0.00 0.00 0.00 42 1007.5
20260506010054 23 119 1.6 4.8 0.00 0.00 0.00 40 1007.4
20260506004555 23 223 1.6 4.8 0.00 0.00 0.00 38 1007.2
20260506003055 24 238 1.6 3.2 0.00 0.00 0.00 37 1006.9
20260506001554 24 138 3.2 4.8 0.00 0.00 0.00 36 1006.7
20260506000055 25 136 1.6 3.2 0.00 0.00 0.00 34 1006.7
20260505234555 26 223 3.2 8.0 0.00 0.00 0.00 30 1005.7
20260505233055 26 218 3.2 8.0 0.00 0.00 0.00 30 1005.7
20260505231755 26 218 3.2 8.0 0.00 0.00 0.00 30 1005.7
20260505231555 26 218 3.2 8.0 0.00 0.00 0.00 30 1005.7
20260505230055 26 218 3.2 8.0 0.00 0.00 0.00 30 1005.7
20260505224849 26 218 3.2 8.0 0.00 0.00 0.00 30 1005.7
20260505224555 26 218 3.2 8.0 0.00 0.00 0.00 30 1005.7
20260505223054 26 218 3.2 8.0 0.00 0.00 0.00 30 1005.7
20260505221554 26 218 3.2 8.0 0.00 0.00 0.00 30 1005.7
20260505220055 26 218 3.2 8.0 0.00 0.00 0.00 30 1005.7
20260505214554 27 219 3.2 9.7 0.00 0.00 0.00 30 1005.4
20260505213806 27 135 4.8 12.9 0.00 0.00 0.00 30 1005.2
20260505213055 27 241 3.2 12.9 0.00 0.00 0.00 31 1005.2
20260505211555 27 135 4.8 12.9 0.00 0.00 0.00 30 1005.2
20260505210055 27 204 3.2 6.4 0.00 0.00 0.00 28 1005.2
20260505204555 27 247 3.2 14.5 0.00 0.00 0.00 29 1005.3
20260505203202 27 197 3.2 8.0 0.00 0.00 0.00 31 1005.4
20260505203054 27 228 4.8 11.3 0.00 0.00 0.00 29 1005.5
20260505201923 27 197 3.2 8.0 0.00 0.00 0.00 31 1005.4
20260505201554 27 197 3.2 8.0 0.00 0.00 0.00 31 1005.4
20260505200151 27 219 4.8 9.7 0.00 0.00 0.00 31 1005.8
20260505200055 27 130 3.2 6.4 0.00 0.00 0.00 32 1005.5
20260505194650 27 186 4.8 14.5 0.00 0.00 0.00 32 1005.7
20260505194554 27 186 4.8 14.5 0.00 0.00 0.00 32 1005.7
20260505193055 27 219 4.8 9.7 0.00 0.00 0.00 31 1005.8
20260505191554 27 203 4.8 14.5 0.00 0.00 0.00 32 1006.1
20260505190055 27 238 3.2 6.4 0.00 0.00 0.00 33 1006.1
20260505184555 27 230 3.2 9.7 0.00 0.00 0.00 35 1006.4
20260505183055 27 185 3.2 4.8 0.00 0.00 0.00 34 1006.5
20260505181554 27 213 3.2 6.4 0.00 0.00 0.00 35 1006.7
20260505180055 27 201 4.8 11.3 0.00 0.00 0.00 37 1006.9
20260505174636 27 205 3.2 6.4 0.00 0.00 0.00 39 1007.0
20260505174554 27 205 3.2 6.4 0.00 0.00 0.00 39 1007.0
20260505173055 26 112 3.2 6.4 0.00 0.00 0.00 41 1007.3
20260505171554 26 90 4.8 9.7 0.00 0.00 0.00 42 1007.4
20260505170056 26 97 3.2 6.4 0.00 0.00 0.00 43 1007.7
20260505164717 26 228 3.2 6.4 0.00 0.00 0.00 44 1007.9
20260505164555 26 228 3.2 6.4 0.00 0.00 0.00 44 1007.9
20260505163055 25 104 3.2 4.8 0.00 0.00 0.00 45 1008.1
20260505161555 25 122 3.2 6.4 0.00 0.00 0.00 46 1008.3
20260505153055 24 163 3.2 6.4 0.00 0.00 0.00 48 1009.0
20260505151554 23 196 1.6 3.2 0.00 0.00 0.00 51 1009.1
20260505151347 22 186 4.8 9.7 0.00 0.00 0.00 54 1009.7
20260505124555 18 107 0.0 1.6 0.00 0.00 0.00 69 1010.1
20260505123357 14 132 1.6 3.2 0.00 0.00 0.00 83 1010.8